Location: Ermatingen
(47.6706°N, 9.0857°E)
Time: 00:39:14
(UTC+00:00)

Cosmos 1428 Rocket - Pass Details

Date: 07 December 2021
Orbit: 949 x 987 km, 82.9° (Epoch: 17 January)

Event Time Altitude Azimuth Distance (km) Brightness Sun altitude
Rises 05:25:02 0° 179° (S) 3,626 7.7 -14.9°
Reaches altitude 10° 05:27:32 10° 178° (S) 2,679 7.1 -14.5°
Maximum altitude 05:33:37 72° 95° (E) 1,003 4.8 -13.6°
Drops below altitude 10° 05:39:43 10° 13° (NNE) 2,684 6.7 -12.6°
Sets 05:42:13 0° 11° (N) 3,633 7.4 -12.2°
